Thunder radar more information blitzortung!


avis per Pluja more information rain snow radar


Visita la nostra xarxa de llocs de meteo:

Template documentation
and downloads

And another site



Rain From: 15-11-2018 00:00 Until: 23:59 warning for: Rain Level: Yellow info button

Pagina Historial Weather Underground text

Diari Resum Octubre 10, 2017 Unitats:  Mètric    Imperial   Tant
« Previous Dia
SegĂźent Dia »
Diari Setmana Mensual Anual Personalitzada
  Maxima: Minima: Media:
Temperatura: -17.8 °C -10.2 °C -7.3 °C
Punt de rosada: -17.8 °C -11.1 °C -9.9 °C
Humitat: Humidity % 49 % 75 %
Wind Speed: 0 km/h 0 km/h 5.1 km/h
RĂ fegues de vent: 0 km/h - -
Vent:- - SSE
Pression baro: 0 hPa 34496.6 hPa -
Precipitacions: 0 mm    
Historical Graphs
 
 
Dades de taula per Octubre 10, 2017
Temps Temperatura Punt de rosada Pression baro Vent Wind Speed RĂ fegues de vent Humitat Rainfall Rate (Hourly)
-17.8 °C -17.8 °C 0 hPa Calm     Humidity % 0 mm
00:04 -7.9 °C -10 °C 34533.8 hPa Calm     79 % 0 mm
00:09 -7.9 °C -9.9 °C 34533.8 hPa SSE 3.1 km/h   80 % 0 mm
00:14 -8 °C -9.9 °C 34533.8 hPa Calm     80 % 0 mm
00:19 -8 °C -9.9 °C 34533.8 hPa ENE 3.1 km/h   80 % 0 mm
00:24 -8.1 °C -10 °C 34533.8 hPa Calm     80 % 0 mm
00:29 -8.2 °C -10.1 °C 34533.8 hPa Calm     80 % 0 mm
00:34 -8.2 °C -10.1 °C 34533.8 hPa ENE 3.7 km/h 3.7 km/h 80 % 0 mm
00:39 -8.3 °C -10.2 °C 34533.8 hPa NE 3.1 km/h   80 % 0 mm
00:44 -8.3 °C -10.2 °C 34533.8 hPa Calm     81 % 0 mm
00:49 -8.3 °C -10.2 °C 34533.8 hPa Calm     81 % 0 mm
00:54 -8.3 °C -10.2 °C 34533.8 hPa Calm     81 % 0 mm
00:59 -8.4 °C -10 °C 34533.8 hPa Calm     83 % 0 mm
01:04 -8.4 °C -10 °C 34533.8 hPa Calm     83 % 0 mm
01:09 -8.4 °C -10 °C 34533.8 hPa NE 3.1 km/h 3.1 km/h 83 % 0 mm
01:14 -8.4 °C -10 °C 34533.8 hPa Calm     83 % 0 mm
01:19 -8.4 °C -10.1 °C 34533.8 hPa Calm     83 % 0 mm
01:24 -8.5 °C -10.1 °C 34533.8 hPa SW 2.3 km/h   83 % 0 mm
01:29 -8.7 °C -10.3 °C 34533.8 hPa SW 3.1 km/h 3.1 km/h 83 % 0 mm
01:39 -8.6 °C -10.1 °C 34533.8 hPa SW 6 km/h 6 km/h 84 % 0 mm
01:44 -8.7 °C -10.2 °C 34533.8 hPa WSW 3.1 km/h   84 % 0 mm
01:49 -8.7 °C -10.2 °C 34533.8 hPa Calm     84 % 0 mm
01:54 -8.7 °C -10.1 °C 34533.8 hPa Calm     85 % 0 mm
01:59 -8.6 °C -10.1 °C 34533.8 hPa Calm     85 % 0 mm
02:04 -8.6 °C -9.9 °C 34533.8 hPa Calm     85 % 0 mm
02:09 -8.6 °C -9.9 °C 34533.8 hPa WNW 4.2 km/h 4.2 km/h 85 % 0 mm
02:14 -8.6 °C -9.9 °C 34533.8 hPa Calm     85 % 0 mm
02:19 -8.6 °C -9.9 °C 34533.8 hPa NNW 6 km/h 6 km/h 85 % 0 mm
02:24 -8.6 °C -9.9 °C 34533.8 hPa NNE 3.1 km/h   85 % 0 mm
02:29 -8.6 °C -10.1 °C 34533.8 hPa Calm     85 % 0 mm
02:34 -8.6 °C -9.9 °C 34533.8 hPa Calm     86 % 0 mm
02:39 -8.6 °C -9.9 °C 34533.8 hPa NNE 3.1 km/h 3.1 km/h 86 % 0 mm
02:44 -8.6 °C -9.9 °C 34496.6 hPa Calm     86 % 0 mm
02:49 -8.6 °C -9.9 °C 34496.6 hPa ENE 5.1 km/h   86 % 0 mm
02:54 -8.7 °C -9.9 °C 34496.6 hPa SSW 4.2 km/h 4.2 km/h 86 % 0 mm
02:59 -8.8 °C -10.2 °C 34533.8 hPa Calm     85 % 0 mm
03:04 -8.8 °C -10.2 °C 34533.8 hPa SSW 3.1 km/h   85 % 0 mm
03:09 -8.8 °C -10.1 °C 34533.8 hPa South 3.1 km/h   86 % 0 mm
03:19 -8.9 °C -10.2 °C 34533.8 hPa Calm     86 % 0 mm
03:24 -8.9 °C -10.2 °C 34533.8 hPa Calm     86 % 0 mm
03:25 -8.9 °C -10.2 °C 34533.8 hPa Calm     86 % 0 mm
03:30 -9 °C -10.3 °C 34533.8 hPa Calm     86 % 0 mm
03:35 -9.1 °C -10.3 °C 34533.8 hPa Calm     86 % 0 mm
03:40 -9.1 °C -10.3 °C 34533.8 hPa SW 3.1 km/h 3.1 km/h 86 % 0 mm
03:45 -9.1 °C -10.3 °C 34533.8 hPa Calm     86 % 0 mm
03:46 -9.1 °C -10.2 °C 34533.8 hPa Calm     87 % 0 mm
03:51 -9.1 °C -10.3 °C 34533.8 hPa Calm     87 % 0 mm
03:56 -9.1 °C -10.3 °C 34533.8 hPa Calm     87 % 0 mm
04:01 -9.1 °C -10.3 °C 34533.8 hPa WNW 3.1 km/h   86 % 0 mm
04:06 -9.1 °C -10.3 °C 34533.8 hPa Calm     87 % 0 mm
04:11 -9.1 °C -10.3 °C 34533.8 hPa Calm     87 % 0 mm
04:16 -9.2 °C -10.4 °C 34533.8 hPa Calm     87 % 0 mm
04:22 -9.3 °C -10.4 °C 34533.8 hPa Calm     87 % 0 mm
04:27 -9.3 °C -10.5 °C 34533.8 hPa Calm     87 % 0 mm
04:32 -9.3 °C -10.4 °C 34533.8 hPa Calm     87 % 0 mm
04:37 -9.3 °C -10.4 °C 34533.8 hPa Calm     88 % 0 mm
04:42 -9.3 °C -10.4 °C 34533.8 hPa Calm     88 % 0 mm
04:47 -9.3 °C -10.4 °C 34533.8 hPa Calm     88 % 0 mm
04:52 -9.3 °C -10.4 °C 34533.8 hPa Calm     88 % 0 mm
04:57 -9.3 °C -10.4 °C 34533.8 hPa Calm     88 % 0 mm
05:03 -9.3 °C -10.3 °C 34533.8 hPa Calm     89 % 0 mm
05:08 -9.2 °C -10.2 °C 34533.8 hPa WNW 3.1 km/h   89 % 0 mm
05:14 -9.3 °C -10.3 °C 34533.8 hPa Calm     89 % 0 mm
05:20 -9.4 °C -10.5 °C 34533.8 hPa Calm     88 % 0 mm
05:25 -9.4 °C -10.5 °C 34533.8 hPa Calm     88 % 0 mm
05:30 -9.3 °C -10.4 °C 34533.8 hPa Calm     88 % 0 mm
05:35 -9.4 °C -10.5 °C 34533.8 hPa Calm     88 % 0 mm
05:36 -9.4 °C -10.5 °C 34533.8 hPa Calm     88 % 0 mm
05:41 -9.4 °C -10.4 °C 34533.8 hPa Calm     89 % 0 mm
05:46 -9.4 °C -10.4 °C 34533.8 hPa SW 3.7 km/h   89 % 0 mm
05:51 -9.4 °C -10.4 °C 34533.8 hPa Calm     89 % 0 mm
05:56 -9.4 °C -10.4 °C 34533.8 hPa Calm     89 % 0 mm
06:01 -9.4 °C -10.4 °C 34496.6 hPa Calm     89 % 0 mm
06:06 -9.5 °C -10.5 °C 34496.6 hPa Calm     89 % 0 mm
06:11 -9.6 °C -10.6 °C 34496.6 hPa Calm     89 % 0 mm
06:16 -9.6 °C -10.6 °C 34533.8 hPa Calm     89 % 0 mm
06:21 -9.5 °C -10.5 °C 34533.8 hPa Calm     89 % 0 mm
06:26 -9.6 °C -10.4 °C 34533.8 hPa Calm     90 % 0 mm
06:31 -9.6 °C -10.4 °C 34533.8 hPa Calm     90 % 0 mm
06:36 -9.6 °C -10.4 °C 34533.8 hPa Calm     90 % 0 mm
06:41 -9.6 °C -10.5 °C 34533.8 hPa Calm     90 % 0 mm
06:46 -9.6 °C -10.5 °C 34496.6 hPa NW 3.1 km/h   90 % 0 mm
06:51 -9.7 °C -10.6 °C 34496.6 hPa Calm     90 % 0 mm
06:56 -9.8 °C -10.8 °C 34496.6 hPa Calm     89 % 0 mm
07:01 -9.8 °C -10.8 °C 34533.8 hPa Calm     89 % 0 mm
07:06 -9.9 °C -10.9 °C 34533.8 hPa Calm     89 % 0 mm
07:11 -9.9 °C -10.9 °C 34533.8 hPa Calm     89 % 0 mm
07:16 -10 °C -11 °C 34533.8 hPa Calm     89 % 0 mm
07:21 -9.9 °C -10.8 °C 34533.8 hPa Calm     90 % 0 mm
07:26 -10 °C -10.9 °C 34533.8 hPa Calm     90 % 0 mm
07:31 -10 °C -10.9 °C 34496.6 hPa Calm     90 % 0 mm
07:36 -10.1 °C -10.9 °C 34496.6 hPa Calm     90 % 0 mm
07:41 -10.1 °C -10.9 °C 34496.6 hPa Calm     90 % 0 mm
07:46 -10.1 °C -11 °C 34533.8 hPa Calm     90 % 0 mm
07:51 -10.1 °C -11 °C 34533.8 hPa Calm     90 % 0 mm
07:56 -10.2 °C -11.1 °C 34533.8 hPa Calm     90 % 0 mm
08:01 -10.2 °C -11.1 °C 34533.8 hPa Calm     90 % 0 mm
08:11 -10.1 °C -11 °C 34533.8 hPa Calm     90 % 0 mm
08:16 -10.2 °C -11.1 °C 34533.8 hPa Calm     90 % 0 mm
08:21 -10.2 °C -11.1 °C 34533.8 hPa Calm     90 % 0 mm
08:26 -10.1 °C -11 °C 34533.8 hPa Calm     90 % 0 mm
08:31 -10.1 °C -10.9 °C 34533.8 hPa WNW 3.7 km/h 3.7 km/h 91 % 0 mm
08:36 -10.1 °C -10.9 °C 34533.8 hPa SW 6 km/h 6 km/h 90 % 0 mm
08:41 -10.1 °C -10.9 °C 34533.8 hPa SW 3.1 km/h 3.1 km/h 90 % 0 mm
08:46 -10 °C -10.9 °C 34533.8 hPa WSW 6 km/h 6 km/h 90 % 0 mm
08:51 -10 °C -10.9 °C 34533.8 hPa SW 6 km/h 6 km/h 90 % 0 mm
08:56 -9.9 °C -10.7 °C 34533.8 hPa West 6 km/h 6 km/h 91 % 0 mm
08:57 -9.9 °C -10.8 °C 34533.8 hPa WSW 6 km/h 6 km/h 90 % 0 mm
09:02 -9.8 °C -10.7 °C 34567.7 hPa WSW 6 km/h 6 km/h 90 % 0 mm
09:07 -9.7 °C -10.5 °C 34567.7 hPa WSW 3.1 km/h 3.1 km/h 91 % 0 mm
09:12 -9.7 °C -10.4 °C 34567.7 hPa WSW 6 km/h 6 km/h 91 % 0 mm
09:17 -9.5 °C -10.3 °C 34567.7 hPa WSW 6.8 km/h 6.8 km/h 91 % 0 mm
09:27 -9.2 °C -10.1 °C 34567.7 hPa WSW 6 km/h 6 km/h 91 % 0 mm
09:32 -9.1 °C -9.9 °C 34601.5 hPa SW 6 km/h 6 km/h 91 % 0 mm
09:37 -9 °C -9.8 °C 34601.5 hPa SW 6 km/h 6 km/h 91 % 0 mm
09:42 -8.8 °C -9.7 °C 34601.5 hPa SW 3.1 km/h   91 % 0 mm
09:47 -8.8 °C -9.7 °C 34601.5 hPa SSW 3.1 km/h 3.1 km/h 90 % 0 mm
09:52 -8.6 °C -9.6 °C 34601.5 hPa SSE 6 km/h 6 km/h 90 % 0 mm
09:57 -8.4 °C -9.3 °C 34601.5 hPa SSW 6 km/h   90 % 0 mm
09:58 -8.4 °C -9.3 °C 34601.5 hPa Calm     90 % 0 mm
10:03 -8.2 °C -9.2 °C 34601.5 hPa WNW 3.1 km/h 3.1 km/h 89 % 0 mm
10:08 -8.2 °C -9.4 °C 34601.5 hPa WSW 6 km/h 6 km/h 87 % 0 mm
10:18 -7.7 °C -9.1 °C 34601.5 hPa SSW 3.1 km/h   85 % 0 mm
10:23 -7.8 °C -9.3 °C 34601.5 hPa SW 6 km/h 6 km/h 84 % 0 mm
10:28 -7.6 °C -9.2 °C 34601.5 hPa NNE 3.1 km/h   83 % 0 mm
10:33 -7.6 °C -9.2 °C 34601.5 hPa SSW 6 km/h 6 km/h 83 % 0 mm
10:38 -7.2 °C -9.1 °C 34601.5 hPa NE 6.3 km/h 6.3 km/h 81 % 0 mm
10:43 -7.1 °C -9.1 °C 34601.5 hPa Calm     80 % 0 mm
10:48 -7 °C -9.2 °C 34601.5 hPa NE 3.1 km/h 3.1 km/h 78 % 0 mm
10:53 -6.8 °C -9.2 °C 34601.5 hPa East 6.8 km/h 6.8 km/h 76 % 0 mm
10:58 -6.8 °C -9.1 °C 34601.5 hPa ENE 6 km/h 6 km/h 77 % 0 mm
11:03 -6.8 °C -9.2 °C 34601.5 hPa SE 6 km/h 6 km/h 76 % 0 mm
11:08 -6.5 °C -9.1 °C 34601.5 hPa NNE 11.1 km/h 11.1 km/h 75 % 0 mm
11:13 -6.7 °C -9.4 °C 34601.5 hPa ESE 6 km/h 6.3 km/h 74 % 0 mm
11:18 -6.5 °C -9.2 °C 34601.5 hPa NE 6 km/h 6 km/h 74 % 0 mm
11:19 -6.4 °C -9.1 °C 34601.5 hPa ESE 7.6 km/h 7.6 km/h 74 % 0 mm
11:24 -6.3 °C -9.2 °C 34601.5 hPa ESE 6 km/h 6.8 km/h 72 % 0 mm
11:29 -6.4 °C -9.2 °C 34601.5 hPa ENE 9 km/h 9 km/h 73 % 0 mm
11:34 -6.2 °C -9 °C 34601.5 hPa ENE 6 km/h 6 km/h 73 % 0 mm
11:39 -6.1 °C -9.1 °C 34601.5 hPa South 9 km/h 9 km/h 71 % 0 mm
11:44 -5.8 °C -8.9 °C 34601.5 hPa NNE 9 km/h 9 km/h 71 % 0 mm
11:49 -5.8 °C -9.1 °C 34601.5 hPa ESE 7.6 km/h 7.6 km/h 69 % 0 mm
11:54 -5.8 °C -9.1 °C 34601.5 hPa ESE 7.6 km/h 7.6 km/h 69 % 0 mm
11:59 -5.6 °C -9.3 °C 34567.7 hPa ESE 9 km/h 9 km/h 66 % 0 mm
12:04 -5.6 °C -9.1 °C 34567.7 hPa SSE 15 km/h 15 km/h 68 % 0 mm
12:09 -5.5 °C -9.2 °C 34567.7 hPa NE 9 km/h 9 km/h 66 % 0 mm
12:14 -5.5 °C -9.1 °C 34567.7 hPa East 9 km/h 9 km/h 67 % 0 mm
12:19 -5.6 °C -9.3 °C 34567.7 hPa ENE 11.9 km/h 11.9 km/h 66 % 0 mm
12:24 -5.4 °C -9.4 °C 34567.7 hPa SSE 11.9 km/h 11.9 km/h 64 % 0 mm
12:29 -5.4 °C -9.2 °C 34601.5 hPa ESE 14.5 km/h 14.5 km/h 65 % 0 mm
12:34 -5.5 °C -9.3 °C 34601.5 hPa NE 11.9 km/h 11.9 km/h 65 % 0 mm
12:39 -5.4 °C -9.3 °C 34601.5 hPa East 11.9 km/h 11.9 km/h 65 % 0 mm
12:44 -5.4 °C -9.3 °C 34567.7 hPa NE 9 km/h 9 km/h 65 % 0 mm
12:49 -5.3 °C -9.2 °C 34567.7 hPa NNW 11.9 km/h 11.9 km/h 65 % 0 mm
12:54 -5.4 °C -9.5 °C 34567.7 hPa ENE 9 km/h 9 km/h 63 % 0 mm
13:04 -4.9 °C -9 °C 34567.7 hPa WSW 6.3 km/h 6.3 km/h 63 % 0 mm
13:09 -4.6 °C -8.9 °C 34567.7 hPa SE 9 km/h 9 km/h 62 % 0 mm
13:14 -4.4 °C -9.3 °C 34567.7 hPa SSE 9 km/h 9.3 km/h 58 % 0 mm
13:19 -4.4 °C -9.2 °C 34567.7 hPa SSW 6 km/h 6 km/h 59 % 0 mm
13:24 -4.6 °C -9.3 °C 34567.7 hPa South 9.8 km/h 9.8 km/h 59 % 0 mm
13:29 -4.4 °C -9.5 °C 34567.7 hPa South 9 km/h 9 km/h 57 % 0 mm
13:34 -4.7 °C -9.7 °C 34567.7 hPa SE 17.9 km/h 17.9 km/h 57 % 0 mm
13:39 -4.3 °C -9.3 °C 34567.7 hPa ESE 6 km/h 6 km/h 57 % 0 mm
13:44 -4 °C -9.2 °C 34567.7 hPa East 9 km/h 9 km/h 56 % 0 mm
13:49 -4.3 °C -9.5 °C 34567.7 hPa ESE 11.9 km/h 11.9 km/h 56 % 0 mm
13:54 -4.4 °C -9.4 °C 34567.7 hPa NE 11.9 km/h 11.9 km/h 57 % 0 mm
13:59 -4.6 °C -9.4 °C 34533.8 hPa ESE 11.9 km/h 11.9 km/h 58 % 0 mm
14:14 -4.7 °C -9.7 °C 34533.8 hPa ENE 6.8 km/h 6.8 km/h 57 % 0 mm
14:19 -4.9 °C -9.9 °C 34533.8 hPa ENE 11.9 km/h 11.9 km/h 57 % 0 mm
14:24 -4.9 °C -9.9 °C 34533.8 hPa ENE 12.7 km/h 12.7 km/h 57 % 0 mm
14:29 -5 °C -10 °C 34533.8 hPa ESE 9.8 km/h 9.8 km/h 57 % 0 mm
14:34 -4.9 °C -9.9 °C 34533.8 hPa ESE 9 km/h 9 km/h 57 % 0 mm
14:39 -4.8 °C -9.8 °C 34533.8 hPa ESE 20.9 km/h 20.9 km/h 57 % 0 mm
14:44 -4.9 °C -10.1 °C 34533.8 hPa WNW 9 km/h 9 km/h 56 % 0 mm
14:49 -4.9 °C -10.1 °C 34533.8 hPa ESE 7.6 km/h 7.6 km/h 56 % 0 mm
14:54 -4.9 °C -10.1 °C 34533.8 hPa South 11.9 km/h 11.9 km/h 56 % 0 mm
14:59 -4.7 °C -9.9 °C 34533.8 hPa WSW 6 km/h 6 km/h 56 % 0 mm
15:04 -4.6 °C -9.9 °C 34533.8 hPa SSE 3.7 km/h 4.2 km/h 55 % 0 mm
15:09 -4.6 °C -9.8 °C 34533.8 hPa SW 6 km/h 6 km/h 56 % 0 mm
15:14 -4.5 °C -9.8 °C 34533.8 hPa ESE 11.9 km/h 11.9 km/h 55 % 0 mm
15:19 -4.3 °C -9.9 °C 34533.8 hPa ESE 15 km/h 15 km/h 53 % 0 mm
15:24 -4.1 °C -9.6 °C 34533.8 hPa SW 12.7 km/h 12.7 km/h 54 % 0 mm
15:29 -3.9 °C -9.6 °C 34533.8 hPa WSW 15 km/h 15 km/h 53 % 0 mm
15:34 -3.9 °C -9.8 °C 34533.8 hPa SE 11.9 km/h 11.9 km/h 52 % 0 mm
15:39 -4 °C -10 °C 34533.8 hPa ESE 11.9 km/h 11.9 km/h 51 % 0 mm
15:44 -3.7 °C -10.1 °C 34533.8 hPa SSW 6 km/h 6 km/h 49 % 0 mm
15:49 -3.8 °C -9.9 °C 34533.8 hPa West 15.3 km/h 15.3 km/h 50 % 0 mm
15:54 -3.9 °C -10.1 °C 34533.8 hPa NE 12.2 km/h 12.2 km/h 50 % 0 mm
15:59 -4 °C -9.8 °C 34533.8 hPa SSW 7.6 km/h 7.6 km/h 52 % 0 mm
16:04 -3.9 °C -9.9 °C 34533.8 hPa SSE 9 km/h 9 km/h 51 % 0 mm
16:09 -3.9 °C -10.1 °C 34533.8 hPa SSW 5.1 km/h 5.1 km/h 50 % 0 mm
16:14 -3.9 °C -9.9 °C 34533.8 hPa WSW 9 km/h 9 km/h 51 % 0 mm
16:19 -3.9 °C -9.9 °C 34533.8 hPa SW 6 km/h 6 km/h 51 % 0 mm
16:24 -4 °C -10 °C 34533.8 hPa SW 6 km/h 6 km/h 51 % 0 mm
16:29 -4.2 °C -10.2 °C 34533.8 hPa ESE 11.9 km/h 11.9 km/h 51 % 0 mm
16:34 -4.6 °C -10.5 °C 34533.8 hPa ESE 19.6 km/h 19.6 km/h 51 % 0 mm
16:39 -4.7 °C -10.5 °C 34533.8 hPa ESE 15 km/h 15 km/h 52 % 0 mm
16:44 -4.8 °C -10.3 °C 34533.8 hPa East 15 km/h 15 km/h 54 % 0 mm
16:49 -4.9 °C -10.1 °C 34533.8 hPa East 25.9 km/h 25.9 km/h 56 % 0 mm
16:54 -5.1 °C -9.9 °C 34533.8 hPa East 23.8 km/h 23.8 km/h 58 % 0 mm
16:59 -5.1 °C -9.8 °C 34533.8 hPa ESE 20.9 km/h 20.9 km/h 59 % 0 mm
17:04 -5.2 °C -9.8 °C 34533.8 hPa ESE 17.9 km/h 17.9 km/h 60 % 0 mm
17:09 -5.3 °C -9.8 °C 34533.8 hPa ESE 15 km/h 15 km/h 60 % 0 mm
17:14 -5.3 °C -9.7 °C 34533.8 hPa ESE 15 km/h 15 km/h 61 % 0 mm
17:19 -5.3 °C -9.7 °C 34533.8 hPa ESE 17.9 km/h 17.9 km/h 61 % 0 mm
17:24 -5.3 °C -9.6 °C 34533.8 hPa ENE 15 km/h 15 km/h 62 % 0 mm
17:29 -5.3 °C -9.6 °C 34533.8 hPa East 11.1 km/h 11.1 km/h 62 % 0 mm
17:34 -5.3 °C -9.4 °C 34533.8 hPa ESE 15 km/h 15 km/h 63 % 0 mm
17:39 -5.3 °C -9.4 °C 34533.8 hPa SE 17.9 km/h 17.9 km/h 63 % 0 mm
17:44 -5.4 °C -9.5 °C 34533.8 hPa ENE 15 km/h 15 km/h 63 % 0 mm
17:49 -5.4 °C -9.5 °C 34533.8 hPa ENE 15.3 km/h 15.3 km/h 63 % 0 mm
17:54 -5.5 °C -9.5 °C 34533.8 hPa East 11.9 km/h 11.9 km/h 64 % 0 mm
17:59 -5.5 °C -9.5 °C 34533.8 hPa ESE 9.3 km/h 9.3 km/h 64 % 0 mm
18:04 -5.5 °C -9.5 °C 34533.8 hPa ENE 9 km/h 9.3 km/h 64 % 0 mm
18:09 -5.6 °C -9.5 °C 34533.8 hPa ESE 23.8 km/h 23.8 km/h 64 % 0 mm
18:14 -5.6 °C -9.3 °C 34533.8 hPa ENE 15 km/h 15 km/h 66 % 0 mm
18:19 -5.6 °C -9.3 °C 34533.8 hPa East 9 km/h 9.3 km/h 66 % 0 mm
18:24 -5.6 °C -9.3 °C 34533.8 hPa ESE 11.9 km/h 11.9 km/h 66 % 0 mm
18:29 -5.6 °C -9.3 °C 34496.6 hPa SW 3.7 km/h   66 % 0 mm
18:39 -5.5 °C -9.5 °C 34496.6 hPa SSW 3.1 km/h   64 % 0 mm
18:44 -5.5 °C -9.5 °C 34533.8 hPa WSW 11.9 km/h 11.9 km/h 64 % 0 mm
18:45 -5.5 °C -9.5 °C 34533.8 hPa WSW 11.9 km/h 11.9 km/h 64 % 0 mm
18:50 -5.5 °C -9.5 °C 34533.8 hPa SW 9 km/h 11.1 km/h 64 % 0 mm
18:55 -5.6 °C -9.5 °C 34533.8 hPa SW 9.8 km/h 11.1 km/h 64 % 0 mm
19:00 -5.7 °C -9.5 °C 34533.8 hPa SW 15.3 km/h 15.3 km/h 65 % 0 mm
19:05 -5.7 °C -9.4 °C 34533.8 hPa SW 12.2 km/h 12.2 km/h 66 % 0 mm
19:10 -5.8 °C -9.4 °C 34533.8 hPa SSW 11.9 km/h 11.9 km/h 66 % 0 mm
19:15 -5.8 °C -9.5 °C 34533.8 hPa SW 12.7 km/h 12.7 km/h 66 % 0 mm
19:20 -5.9 °C -9.6 °C 34533.8 hPa SW 16.6 km/h 16.6 km/h 66 % 0 mm
19:25 -6 °C -9.7 °C 34533.8 hPa SSW 6.8 km/h 6.8 km/h 66 % 0 mm
19:30 -6.1 °C -9.7 °C 34533.8 hPa SSW 15 km/h 15 km/h 67 % 0 mm
19:35 -6.2 °C -9.7 °C 34533.8 hPa SW 6 km/h 6 km/h 67 % 0 mm
19:40 -6.2 °C -9.8 °C 34533.8 hPa SW 9 km/h 9 km/h 67 % 0 mm
19:45 -6.3 °C -9.7 °C 34533.8 hPa SSW 9 km/h 9 km/h 68 % 0 mm
19:50 -6.3 °C -9.7 °C 34533.8 hPa SW 6 km/h   68 % 0 mm
19:55 -6.4 °C -9.7 °C 34533.8 hPa WSW 11.9 km/h 11.9 km/h 69 % 0 mm
20:00 -6.5 °C -9.8 °C 34567.7 hPa SW 5.6 km/h 5.6 km/h 69 % 0 mm
20:05 -6.6 °C -9.8 °C 34567.7 hPa SW 6 km/h 6 km/h 69 % 0 mm
20:10 -6.6 °C -9.8 °C 34567.7 hPa SW 6.3 km/h 6.3 km/h 70 % 0 mm
20:15 -6.7 °C -9.8 °C 34567.7 hPa SW 6 km/h 6 km/h 70 % 0 mm
20:20 -6.7 °C -9.8 °C 34567.7 hPa West 6 km/h 6 km/h 70 % 0 mm
20:30 -6.8 °C -9.7 °C 34567.7 hPa SW 6 km/h 6 km/h 72 % 0 mm
20:35 -6.8 °C -9.7 °C 34567.7 hPa WSW 3.1 km/h   72 % 0 mm
20:40 -6.8 °C -9.6 °C 34567.7 hPa SW 6 km/h   73 % 0 mm
20:45 -6.9 °C -9.7 °C 34601.5 hPa WSW 6 km/h 6 km/h 73 % 0 mm
20:50 -6.9 °C -9.7 °C 34601.5 hPa West 6 km/h 6 km/h 73 % 0 mm
20:55 -6.9 °C -9.6 °C 34601.5 hPa Calm     74 % 0 mm
21:00 -7 °C -9.6 °C 34601.5 hPa SW 2.3 km/h   74 % 0 mm
21:10 -7.1 °C -9.6 °C 34601.5 hPa Calm     75 % 0 mm
21:15 -7.1 °C -9.6 °C 34601.5 hPa Calm     75 % 0 mm
21:20 -7.2 °C -9.7 °C 34601.5 hPa Calm     75 % 0 mm
21:25 -7.2 °C -9.7 °C 34601.5 hPa Calm     75 % 0 mm
21:30 -7.2 °C -9.6 °C 34601.5 hPa Calm     76 % 0 mm
21:35 -7.2 °C -9.6 °C 34601.5 hPa Calm     76 % 0 mm
21:40 -7.3 °C -9.7 °C 34601.5 hPa Calm   2.6 km/h 76 % 0 mm
21:45 -7.3 °C -9.6 °C 34601.5 hPa Calm     77 % 0 mm
21:50 -7.4 °C -9.7 °C 34601.5 hPa Calm     77 % 0 mm
21:55 -7.4 °C -9.7 °C 34601.5 hPa Calm     77 % 0 mm
22:00 -7.4 °C -9.6 °C 34601.5 hPa Calm     78 % 0 mm
22:05 -7.4 °C -9.6 °C 34601.5 hPa Calm     78 % 0 mm
22:10 -7.4 °C -9.6 °C 34601.5 hPa Calm     78 % 0 mm
22:15 -7.5 °C -9.7 °C 34567.7 hPa Calm     78 % 0 mm
22:20 -7.5 °C -9.6 °C 34567.7 hPa Calm     79 % 0 mm
22:25 -7.5 °C -9.6 °C 34567.7 hPa Calm     79 % 0 mm
22:30 -7.6 °C -9.6 °C 34601.5 hPa Calm     79 % 0 mm
22:35 -7.6 °C -9.6 °C 34601.5 hPa Calm     79 % 0 mm
22:40 -7.6 °C -9.7 °C 34601.5 hPa Calm     79 % 0 mm
22:45 -7.6 °C -9.7 °C 34601.5 hPa Calm     79 % 0 mm
22:50 -7.7 °C -9.6 °C 34601.5 hPa Calm     80 % 0 mm
23:00 -7.7 °C -9.6 °C 34601.5 hPa Calm     80 % 0 mm
23:05 -7.7 °C -9.6 °C 34601.5 hPa Calm     80 % 0 mm
23:10 -7.7 °C -9.7 °C 34601.5 hPa Calm   5.1 km/h 80 % 0 mm
23:15 -7.7 °C -9.6 °C 34601.5 hPa Calm   5.1 km/h 80 % 0 mm
23:20 -7.7 °C -9.6 °C 34601.5 hPa Calm     81 % 0 mm
23:25 -7.7 °C -9.6 °C 34601.5 hPa West 3.1 km/h   81 % 0 mm
23:30 -7.7 °C -9.6 °C 34601.5 hPa West 3.1 km/h   81 % 0 mm
23:35 -7.7 °C -9.6 °C 34601.5 hPa Calm     81 % 0 mm
23:40 -7.7 °C -9.4 °C 34601.5 hPa Calm     82 % 0 mm
23:45 -7.8 °C -9.5 °C 34601.5 hPa Calm     82 % 0 mm
23:47 -7.8 °C -9.5 °C 34601.5 hPa Calm     82 % 0 mm
23:50 -9.4 °C -10.6 °C 34601.5 hPa Calm   2.6 km/h 88 % 0 mm
23:52 -7.9 °C -9.6 °C 34601.5 hPa Calm     82 % 0 mm
23:57 -7.9 °C -9.6 °C 34601.5 hPa Calm     82 % 0 mm
Meteo Sesrovires
Elogis d' Weather Underground - 2.5 mb

Guio original per  Jim McMurry - jmcmurry@mwt.net Adaptat per a la plantilla per  Wim van der Kuil - Leuven-Template.eu

Trobareu la nostra informacio del temps tambe a:

Weather Underground

AWEKAS